Location: Ethel Rock
(53.4667°N, 4.5667°W)
Time: 00:14:35
(UTC+00:00)

NOSS 3-3 (A) - Pass Details

Date: 24 October 2020
Orbit: 826 x 1387 km, 63.4° (Epoch: 22 November)

Event Time Altitude Azimuth Distance (km) Brightness Sun altitude
Exits shadow 04:14:24 44° 288° (WNW) 1,628 4.7 -25.5°
Maximum altitude 04:16:45 62° 232° (SW) 1,393 4.4 -25.1°
Drops below altitude 10° 04:24:51 10° 155° (SSE) 3,380 6.9 -24.0°
Sets 04:27:51 0° 152° (SSE) 4,389 7.6 -23.5°
